Zurück zum Katalog

CHUANG XIN 26

CX-26

AktivWissenschaftLEO
NORAD 69972·PAYLOAD·🇨🇳 China

Gestartet Jul 10, 2026 von Wenchang Space Launch Site

Loading…

Nächste Überflüge (nächste 24 Stunden)

TLE

AktuellSource: Space-Track

Epoche: Sep 14, 2026, 14:58 UTC

1 69972U 26158A   26257.62386396 -.00000166  00000-0 -26561-5 0  9990
2 69972  49.9853  21.1655 0005185 158.9598 201.1530 14.25129430  9469

Verfolge CHUANG XIN 26 in Echtzeit mit AllMySat

Download on the App Store